Ionia, MI

2:06 PM EDT on September 25, 2017 (GMT -0400)
Ionia

Weather History for KY70 - January, 2014

Change the Weather History Date:

Wednesday, January 8, 2014

  Actual Average (KGRR) Record (KGRR)
Temperature  
Mean Temperature 8 °F -  
Max Temperature 16 °F 26 °F 59 °F (1965)
Min Temperature -1 °F 9 °F -13 °F (1988)
Degree Days  
Heating Degree Days 58    
Moisture  
Dew Point 3 °F    
Average Humidity 82    
Maximum Humidity 89    
Minimum Humidity 74    
Precipitation  
Precipitation 0.00 in - - ()
Sea Level Pressure  
Sea Level Pressure 30.33 in    
Wind  
Wind Speed 8 mph (WSW)    
Max Wind Speed 13 mph    
Max Gust Speed 16 mph    
Visibility 7 miles    
Events Snow    
Averages and records for this station are not official NWS values.
T = Trace of Precipitation, MM = Missing Value Source: NWS Daily Summary

Daily Weather History Graph

Daily Weather History Graph

Search for Another Location

Airport or City:

Trip Planner

Search our weather history database for the weather conditions in past years. The results will help you decide how hot, cold, wet, or windy it might be!

Date:

Astronomy

Jan. 08, 2014 Rise Set
Actual Time 8:10 AM EST 5:23 PM EST
Civil Twilight 7:39 AM EST 5:55 PM EST
Nautical Twilight 7:03 AM EST 6:30 PM EST
Astronomical Twilight 6:29 AM EST 7:04 PM EST
Moon 12:20 PM EST (1/8) 1:10 AM EST (1/8)
Length of Visible Light 10h 16m
Length of Day
9h 12m
First Quarter, 56% of the Moon is Illuminated
Jan 8
First Quarter
Jan 15
Full
Jan 24
Last Quarter
Jan 30
New
Feb 6
First Quarter

Hourly Weather History & Observations

Time (EST) Temp. Windchill Dew Point Humidity Pressure Visibility Wind Dir Wind Speed Gust Speed Precip Events Conditions
12:14 AM 3.7 °F -10.6 °F -0.8 °F 82% 30.24 in 5.0 mi SW 9.2 mph - N/A Snow Light Snow
12:34 AM 4.1 °F -12.7 °F -0.4 °F 82% 30.24 in 5.0 mi SW 12.7 mph - N/A Snow Light Snow
12:54 AM 4.1 °F -11.1 °F -0.0 °F 83% 30.24 in 4.0 mi WSW 10.4 mph - N/A Snow Light Snow
1:14 AM 4.1 °F -9.2 °F 0.1 °F 84% 30.24 in 3.0 mi SW 8.1 mph - N/A Snow Light Snow
1:34 AM 4.1 °F -11.1 °F 0.1 °F 84% 30.24 in 3.0 mi SW 10.4 mph - N/A Snow Light Snow
1:54 AM 4.1 °F -9.2 °F 0.3 °F 84% 30.24 in 2.5 mi SW 8.1 mph - N/A Snow Light Snow
2:14 AM 3.9 °F -6.9 °F -0.0 °F 84% 30.24 in 1.0 mi SSW 5.8 mph - N/A Snow Light Snow
2:34 AM 3.0 °F -9.3 °F -0.9 °F 84% 30.24 in 1.2 mi SSW 6.9 mph - N/A Snow Light Snow
2:54 AM 2.5 °F -10.0 °F -1.3 °F 84% 30.25 in 4.0 mi SSW 6.9 mph - N/A Snow Light Snow
3:14 AM 2.3 °F -8.8 °F -1.3 °F 85% 30.26 in 3.0 mi SW 5.8 mph - N/A Snow Light Snow
3:34 AM 2.3 °F -10.2 °F -1.3 °F 85% 30.26 in 5.0 mi SW 6.9 mph - N/A Snow Light Snow
3:54 AM 2.8 °F -8.2 °F -0.8 °F 85% 30.26 in 5.0 mi SW 5.8 mph - N/A Snow Light Snow
4:14 AM 3.2 °F -10.3 °F -0.4 °F 85% 30.25 in 7.0 mi SW 8.1 mph - N/A Snow Light Snow
4:34 AM 3.0 °F -10.5 °F -0.8 °F 84% 30.26 in 7.0 mi SW 8.1 mph - N/A Snow Light Snow
4:54 AM 2.1 °F -10.4 °F -1.5 °F 85% 30.26 in 7.0 mi SSW 6.9 mph - N/A Snow Light Snow
5:14 AM 1.0 °F -10.3 °F -2.2 °F 86% 30.26 in 7.0 mi SSW 5.8 mph - N/A Snow Light Snow
5:34 AM 0.5 °F -11.0 °F -2.6 °F 87% 30.26 in 10.0 mi South 5.8 mph - N/A Snow Light Snow
5:54 AM 0.9 °F -11.9 °F -2.7 °F 85% 30.27 in 7.0 mi SSW 6.9 mph - N/A Snow Light Snow
6:14 AM 0.1 °F -14.0 °F -3.5 °F 85% 30.26 in 10.0 mi SSW 8.1 mph - N/A   Scattered Clouds
6:34 AM 0.5 °F -13.6 °F -3.1 °F 85% 30.27 in 5.0 mi SSW 8.1 mph - N/A Snow Light Snow
6:54 AM 0.5 °F -11.0 °F -3.1 °F 85% 30.27 in 7.0 mi SSW 5.8 mph - N/A Snow Light Snow
7:14 AM 0.3 °F -12.6 °F -3.3 °F 85% 30.28 in 5.0 mi SW 6.9 mph - N/A Snow Light Snow
7:34 AM 0.5 °F -12.3 °F -3.5 °F 83% 30.28 in 7.0 mi SW 6.9 mph - N/A Snow Light Snow
7:54 AM -0.2 °F -14.4 °F -3.8 °F 85% 30.29 in 10.0 mi SW 8.1 mph - N/A Snow Light Snow
8:14 AM -1.1 °F -12.9 °F -4.5 °F 85% 30.29 in 7.0 mi SW 5.8 mph - N/A   Clear
8:34 AM -1.3 °F -13.1 °F -4.5 °F 86% 30.30 in 7.0 mi SW 5.8 mph - N/A   Clear
8:54 AM -1.3 °F -14.5 °F -4.9 °F 85% 30.30 in 7.0 mi SSW 6.9 mph - N/A   Clear
9:14 AM -0.2 °F -13.2 °F -3.5 °F 86% 30.31 in 7.0 mi SSW 6.9 mph - N/A   Clear
9:34 AM 1.2 °F -10.1 °F -2.6 °F 84% 30.32 in 10.0 mi SW 5.8 mph - N/A   Clear
9:54 AM 2.7 °F -10.9 °F -2.0 °F 81% 30.32 in 10.0 mi SSW 8.1 mph - N/A   Clear
10:14 AM 4.6 °F -6.0 °F -0.6 °F 79% 30.33 in 10.0 mi SW 5.8 mph - N/A   Mostly Cloudy
10:34 AM 5.7 °F -3.2 °F 0.3 °F 78% 30.34 in 7.0 mi WSW 4.6 mph - N/A   Overcast
10:54 AM 7.5 °F -2.6 °F 1.9 °F 78% 30.34 in 5.0 mi WSW 5.8 mph - N/A Snow Light Snow
11:14 AM 8.6 °F -3.7 °F 2.5 °F 76% 30.34 in 10.0 mi SW 8.1 mph - N/A Snow Light Snow
11:34 AM 9.1 °F -0.7 °F 2.7 °F 75% 30.34 in 10.0 mi SSW 5.8 mph - N/A   Overcast
11:54 AM 9.7 °F -2.4 °F 3.2 °F 75% 30.33 in 10.0 mi SW 8.1 mph - N/A   Overcast
12:14 PM 9.9 °F -1.1 °F 4.1 °F 78% 30.32 in 4.0 mi WSW 6.9 mph - N/A Snow Light Snow
12:34 PM 11.5 °F 2.1 °F 4.8 °F 75% 30.31 in 5.0 mi WSW 5.8 mph - N/A Snow Light Snow
12:54 PM 12.7 °F 2.4 °F 6.3 °F 75% 30.30 in 10.0 mi WSW 6.9 mph - N/A Snow Light Snow
1:14 PM 13.6 °F 4.6 °F 7.5 °F 77% 30.30 in 10.0 mi WSW 5.8 mph - N/A Snow Light Snow
1:34 PM 14.4 °F 2.4 °F 8.4 °F 77% 30.30 in 5.0 mi WSW 9.2 mph - N/A Snow Light Snow
1:54 PM 14.9 °F 3.1 °F 9.0 °F 77% 30.30 in 10.0 mi WSW 9.2 mph - N/A   Scattered Clouds
2:14 PM 15.4 °F 3.8 °F 9.1 °F 76% 30.30 in 10.0 mi WSW 9.2 mph - N/A   Mostly Cloudy
2:34 PM 15.8 °F 4.2 °F 9.3 °F 76% 30.30 in 10.0 mi WSW 9.2 mph - N/A Snow Light Snow
2:54 PM 16.7 °F 5.3 °F 10.2 °F 76% 30.30 in 10.0 mi WSW 9.2 mph - N/A   Overcast
3:14 PM 16.7 °F 3.2 °F 9.9 °F 74% 30.31 in 10.0 mi WSW 12.7 mph 16.1 mph N/A   Overcast
3:34 PM 16.7 °F 4.5 °F 10.2 °F 76% 30.32 in 7.0 mi WSW 10.4 mph - N/A Snow Light Snow
3:54 PM 16.3 °F 4.9 °F 10.6 °F 78% 30.32 in 5.0 mi WSW 9.2 mph - N/A Snow Light Snow
4:14 PM 16.5 °F 6.9 °F 11.3 °F 80% 30.33 in 2.0 mi West 6.9 mph - N/A Snow Light Snow
4:34 PM 16.2 °F 5.5 °F 11.3 °F 81% 30.33 in 4.0 mi West 8.1 mph - N/A Snow Light Snow
4:54 PM 15.1 °F 2.5 °F 10.2 °F 81% 30.34 in 5.0 mi West 10.4 mph - N/A Snow Light Snow
5:14 PM 12.2 °F 1.7 °F 7.7 °F 82% 30.35 in 7.0 mi West 6.9 mph - N/A Snow Light Snow
5:34 PM 14.4 °F 5.5 °F 9.5 °F 81% 30.35 in 7.0 mi West 5.8 mph - N/A   Mostly Cloudy
5:54 PM 14.9 °F 4.0 °F 8.2 °F 75% 30.37 in 10.0 mi West 8.1 mph - N/A   Overcast
6:14 PM 14.9 °F 0.9 °F 8.6 °F 76% 30.37 in 10.0 mi West 12.7 mph - N/A   Overcast
6:34 PM 14.7 °F 3.8 °F 8.2 °F 75% 30.38 in 10.0 mi West 8.1 mph - N/A   Overcast
6:54 PM 13.8 °F 2.7 °F 7.7 °F 77% 30.39 in 10.0 mi West 8.1 mph - N/A   Overcast
7:14 PM 13.1 °F 2.8 °F 7.7 °F 79% 30.39 in 10.0 mi WNW 6.9 mph - N/A Snow Light Snow
7:34 PM 12.4 °F 3.1 °F 7.5 °F 81% 30.40 in 7.0 mi West 5.8 mph - N/A Snow Light Snow
7:54 PM 12.0 °F 2.7 °F 7.7 °F 83% 30.41 in 7.0 mi West 5.8 mph - N/A Snow Light Snow
8:14 PM 12.2 °F 0.7 °F 7.7 °F 82% 30.41 in 10.0 mi WNW 8.1 mph - N/A Snow Light Snow
8:34 PM 12.6 °F 3.4 °F 7.9 °F 82% 30.42 in 7.0 mi WNW 5.8 mph - N/A Snow Light Snow
8:54 PM 12.2 °F 4.3 °F 7.7 °F 82% 30.42 in 7.0 mi WNW 4.6 mph - N/A Snow Light Snow
9:14 PM 12.2 °F 1.7 °F 7.7 °F 82% 30.44 in 7.0 mi WNW 6.9 mph - N/A Snow Light Snow
9:34 PM 11.8 °F 2.5 °F 7.5 °F 83% 30.44 in 7.0 mi NW 5.8 mph - N/A Snow Light Snow
9:54 PM 10.8 °F 2.7 °F 6.4 °F 83% 30.44 in 7.0 mi NW 4.6 mph - N/A Snow Light Snow
10:14 PM 9.9 °F 3.4 °F 6.1 °F 85% 30.45 in 7.0 mi NW 3.5 mph - N/A Snow Light Snow
10:34 PM 9.0 °F 2.4 °F 5.7 °F 87% 30.45 in 5.0 mi NW 3.5 mph - N/A Snow Light Snow
10:54 PM 9.3 °F 2.8 °F 6.1 °F 87% 30.46 in 7.0 mi NW 3.5 mph - N/A Snow Light Snow
11:14 PM 6.6 °F - 3.7 °F 88% 30.46 in 7.0 mi Calm Calm - N/A Snow Light Snow
11:34 PM 4.3 °F - 1.6 °F 89% 30.46 in 7.0 mi Calm Calm - N/A Snow Light Snow
11:54 PM 0.5 °F - -2.6 °F 87% 30.47 in 10.0 mi Calm Calm - N/A   Clear